Location: Newark
(49.8348°N, 24.0280°E)
Time: 06:03:30
(UTC+00:00)

Transit 2A - Pass Details

Date: 29 January 2020
Orbit: 600 x 959 km, 66.7° (Epoch: 19 February)

Event Time Altitude Azimuth Distance (km) Brightness Sun altitude
Rises 22:33:09 0° 322° (NW) 2,893 - -58.0°
Reaches altitude 10° 22:37:07 10° 357° (N) 2,038 - -58.0°
Maximum altitude 22:38:33 11° 16° (NNE) 1,975 - -58.0°
Drops below altitude 10° 22:40:01 10° 34° (NE) 2,087 - -58.0°
Sets 22:44:14 0° 69° (ENE) 3,089 - -58.0°
